www.pogodaiklimat.ru

Погода и климат >> Архив погоды >> Россия >> Забайкальский край >> Ямкун


ПОГОДА в Ямкуне

  • Прогноз погоды в Ямкуне
  • Монитор погоды в Ямкуне

АРХИВ ПОГОДЫ в Ямкуне

Время (UTC), дата Ветер
(напр.,м/с)
 
Видим.   Явления Облачность Т
(С)
Тd
(С)
f
(%)
Тe
(С)
Тes
(С)
Комфортность P
(гПа)
Po
(гПа)
Тmin
(С)
Tmax
(С)
R
(мм)
R24
(мм)
S
(см)
03 12.09 Ю 6-11
{14}
н/о н/о +22.3 +11.1 49 +24 +24 комфорт 1003.6 926.7 +3.8
06 12.09 Ю 5 50 км 7 баллов +21.7 +11.4 52 +24 +25 комфорт 1000.8 924.0
09 12.09 Ю 6-13
{15}
50 км 10/8 1000 м
[Sc Ac trans]
+19.7 +8.1 47 +20 +20 1000.0 922.7
12 12.09 СЗ 2
{13}
20 км 10/8 1000 м
[Sc Ac trans]
+11.2 +9.3 88 +10 +10 1000.5 921.0 +23.0
15 12.09 З 2 10 км в посл. час ливневой дождь 10 баллов +9.1 +8.3 95 +7 +7 1003.0 922.7
18 12.09 СЗ 2 20 км {дождь} 10/8 1000 м
[Cb cap Ac trans]
+8.5 +6.3 86 +7 +7 1002.0 921.6
00 13.09 ЮЗ 3 50 км 3/0
[Ci fib]
+9.8 +6.1 78 +8 +9 1007.2 926.7 +1.1 14
03 13.09 З 4 50 км 4/4 1000 м
[Cu hum]
+13.7 +5.1 56 +12 +16 1008.9 929.3
06 13.09 З 4 50 км 6/5 1000 м
[Cu hum Ci]
+15.8 +3.2 43 +15 +17 1007.0 928.0
09 13.09 З 2 50 км 8/8 1000 м
[Cb cap]
+14.1 +4.4 52 +14 +14 1007.4 928.0
12 13.09 ЮЗ 1 20 км 6/6 1000 м
[Sc]
+9.6 +4.7 71 +9 +9 1010.6 929.8 +16.8
15 13.09 Ю 3 20 км ясно +5.8 +3.5 85 +3 +3 1012.8 930.7
18 13.09 Ю 3 20 км ясно +5.0 +2.2 82 +2 +2 1014.5 932.0
21 13.09 Ю 3 20 км ясно +3.1 +1.1 87 -1 -1 1015.1 932.0
00 14.09 Ю 2 50 км 6/0
[Ac trans Ci fib]
+4.3 +1.5 82 +2 +3 1013.4 930.7 +0.8
03 14.09 Ю 4 50 км 6/0
[Ac trans Ci fib]
+13.6 +0.9 42 +12 +15 1010.6 930.7
06 14.09 ЮЗ 5-10
{10}
50 км 8/0
[Ac trans Ci fib]
+15.1 -1.1 33 +14 +16 1006.1 927.0
09 14.09 Ю 3
{11}
50 км 3/0
[Ci fib]
+12.5 +3.4 54 +11 +12 1006.5 926.7
12 14.09 Ю 2 20 км в посл. час ливневой дождь 6/3 1000 м
[Sc Ac trans]
+7.3 +5.6 89 +5 +5 1007.1 925.9 +15.4 0.7
15 14.09 ЮЗ 3 20 км 3/0
[Ac trans]
+4.7 +3.4 91 +1 +1 1008.8 926.7
18 14.09 Ю 4 20 км 3/0
[Ac trans]
+4.1 +2.9 92 -0 -0 1007.5 925.3
21 14.09 З 4
{10}
20 км 6/0
[Ac trans]
+4.0 -3.3 59 0 0 1009.1 926.7
00 15.09 З 5-10
{12}
50 км ясно +2.7 -8.6 43 -2 -1 1011.2 928.2 +2.1
03 15.09 З 6-13
{13}
50 км 3/3 1000 м
[Cu med, cong]
+5.2 -10.1 32 +1 +4 1011.7 929.3
06 15.09 З 5-11
{16}
50 км 1/1 1000 м
[Cu hum]
+7.4 -11.4 25 +4 +8 1010.8 929.1
09 15.09 З 5-11
{15}
50 км 3/3 1000 м
[Cu hum]
+7.7 -9.7 28 +5 +5 1012.4 930.7
12 15.09 ЮЗ 2
{11}
20 км ясно +2.0 -6.7 52 -1 -1 1014.4 930.9 +8.0
15 15.09 Ю 4 20 км ясно +1.6 -7.4 51 -3 -3 1015.7 932.0
18 15.09 Ю 4 20 км ясно -0.7 -7.1 62 -6 -6 1016.4 932.0
21 15.09 Ю 4 20 км 8/0
[Ac trans]
+1.2 -7.3 53 -3 -3 1015.8 932.0
00 16.09 ЮЗ 4 50 км 9/5 1000 м
[Sc Ac trans]
+3.0 -4.7 57 -1 -1 1014.1 930.9 -1.9
03 16.09 З 5-10
{10}
50 км 6/0
[Ac trans Ci fib]
+11.1 -2.3 39 +9 +11 1011.3 930.7
06 16.09 ЮЗ 3
{10}
50 км 8/0
[As op Ci fib]
+12.8 -0.5 40 +12 +14 1009.3 929.3
09 16.09 Ю 2 50 км 8/5 1000 м
[Sc As op]
+12.5 +2.4 50 +12 +12 1006.5 926.7
12 16.09 Ю 1
{11}
20 км в посл. час ливневой дождь 8/5 1000 м
[Cb cap As op]
+5.6 +4.7 94 +4 +4 1007.1 925.4 +25.0 2
15 16.09 Ю 2 20 км 8/5 1000 м
[Cb cap As op]
+5.2 +3.1 86 +3 +3 1008.7 926.7
18 16.09 З 3 20 км 8/5 1000 м
[Cb cap As op]
+5.7 +3.0 83 +2 +2 1008.5 926.7
21 16.09 ЮЗ 3 20 км 8/5 1000 м
[Cb cap As op]
+3.2 +0.8 84 -1 -1 1010.7 928.0
00 17.09 СЗ 5
{11}
10 км в посл. час дождь со снегом {ливн. осадки} 10/8 1000 м
[Cb cap As op]
+2.1 +0.3 88 -4 -4 1013.1 929.9 +2.1 0.4
03 17.09 С 7 50 км 10 баллов +4.1 -1.5 67 -1 -1 1017.8 934.7
06 17.09 С 3
{12}
50 км {ливн. осадки} 8/8 600 м
[Cb cap]
+6.3 -0.6 61 +4 +5 1018.1 935.6
12 17.09 ЮЗ 2 20 км {ливн. осадки} 8/6 1000 м
[Sc Ac trans]
+2.2 -3.8 64 -1 -1 1021.7 937.7 +6.9 0.8
15 17.09 Ю 1 20 км 7 баллов +1.0 -3.8 70 -1 -1 1023.1 938.7
18 17.09 Ю 1 20 км 2 балла -4.0 -5.5 89 -6 -6 1026.2 940.0
21 17.09 В 1 20 км ясно -5.2 -6.2 93 -8 -8 1026.6 940.0
00 18.09 ЮЗ 1 50 км ясно -0.7 -3.4 82 -3 -0 1025.2 940.1 -5.8
03 18.09 З 3 50 км ясно +7.6 -7.3 34 +6 +12 1022.5 940.0
06 18.09 С 3 50 км ясно +11.1 -1.0 43 +10 +15 1020.0 938.7
09 18.09 ЮЗ 3 50 км 4 балла +11.5 -2.3 38 +10 +11 1018.4 937.3
12 18.09 Ю 1 20 км 3/0
[Ac lent]
+3.7 -0.1 76 +2 +2 1019.5 936.2 +11.8
15 18.09 штиль 0 20 км 6 баллов +0.2 -1.2 90 -1 -1 1020.4 936.0
18 18.09 штиль 0 20 км 10 баллов -0.5 -1.1 96 -2 -2 1020.6 936.0
21 18.09 штиль 0 20 км ясно -2.0 -2.4 97 -3 -3 1021.1 936.0
00 19.09 Ю 2 50 км ясно +3.2 +0.2 81 0 +2 1017.8 934.5 -2.5

 

Местоположение метеостанции Ямкун (Забайкальский край, Россия): широта 51.53 долгота 118.30 высота над уровнем моря 698 м.

В архиве по умолчанию представлена погода в Ямкуне за последнюю неделю. Архивные данные за месяц целиком и за предыдущие месяцы, начиная с января 2011 года, Вы можете получить, выбрав интересующий диапазон дат из раскрывающегося списка и нажав кнопку "Ввод!".


*Определитесь, кто Вы:
робот инопланетянин человек

Внимание! Время в таблицах - всемирное. Для получения местного времени необходимо прибавить поправку, которая равна 9 ч.

Смотрите также архив погоды в соседних городах и на ближайших метеорологических станциях:

Погода в Шелопугино (Забайкальский край, Россия) (57 км)
Погода в Александровском Заводе (Забайкальский край, Россия) (73 км)
Погода в Зилово (Забайкальский край, Россия) (81 км)
Погода в Сретенске (Забайкальский край, Россия) (88 км)
Погода в Нерчинском Заводе (Забайкальский край, Россия) (94 км)
Погода в Балее (Забайкальский край, Россия) (111 км)
Погода в Нерчинске (Забайкальский край, Россия) (134 км)
Погода в Усть-Карске (Забайкальский край, Россия) (135 км)
Погода в Приаргунске (Забайкальский край, Россия) (135 км)
Погода в Чернышевске (Забайкальский край, Россия) (142 км)

Пояснения к столбцам:

Ветер - указаны скорость ветра в м/с - средняя за 10 мин, порывы в срок и между сроками (в фигурных скобках) и направление, откуда дует ветер: С - северный, СВ - северо-восточный, В - восточный, ЮВ - юго-восточный, Ю - южный, ЮЗ - юго-западный, З - западный, СЗ - северо-западный.
Видимость - горизонтальная дальность видимости в метрах или километрах. При видимости от 1 до 10 км при отсутствии осадков обычно наблюдается дымка, при ухудшении видимости до 1 км и менее - туман. В сухую погоду видимость может ухудшаться дымом, пылью или мглою.
Явления - указаны атмосферные явления, наблюдавшиеся в срок или в последний час перед сроком; фигурными скобками обозначены явления, наблюдавшиеся между сроками (за 1-3 часа до срока); квадратными скобками обозначены град или гололедные отложения с указанием их диаметра в мм.
Облачность - указаны через наклонную черту общая и нижняя облачность в баллах и высота нижней границы облаков в метрах; квадратными скобками обозначены формы облаков: Ci - перистые, Cs - перисто-слоистые, Cc - перисто-кучевые, Ac - высококучевые, As - высокослоистые, Sc - слоисто-кучевые, Ns - слоисто-дождевые, Cu - кучевые, Cb - кучево-дождевые. Подробнее классификацию облаков см. в Атласе облаков (PDF).
T - Температура воздуха - температура, измеренная на высоте 2 м над землей.
Td - Температура точки росы - температура, при понижении до которой содержащийся в воздухе водяной пар достигнет насыщения.
f - Относительная влажность воздуха - влажноcть воздуха, измеренная на высоте 2 м над землей.
Te - Эффективная температура - температура, которую ощущает одетый по сезону человек в тени. Характеристика душности погоды. При расчете учитывается влияние влажности воздуха и скорости ветра на теплоощущения человека.
Tes - Эффективная температура на солнце - температура, которую ощущает человек, с поправкой на солнечный нагрев. Характеристика знойности погоды. Зависит от высоты солнца над горизонтом, облачности и скорости ветра. Ночью, в пасмурную погоду, а также при ветре 12 м/с и более поправка равна нулю.
P - Атмосферное давление - приведенное к уровню моря атмосферное давление.
Po - Атмосферное давление - измеренное на уровне метеостанции атмосферное давление.
Tmin - Минимальная температура - минимум температуры воздуха на высоте 2 м над землей.
Tmax - Максимальная температура - максимум температуры воздуха на высоте 2 м над землей.
R - Количество осадков - Количество выпавших осадков за период времени, мм. При наведении курсора мыши на число - период времени, за который выпало указанное количество осадков.
R24 - Количество осадков - Количество выпавших осадков за 24 часа, мм.
S - Снежный покров - Высота снежного покрова, см. При наведении курсора мыши на число - состояние снежного покрова и степень покрытия местности в баллах.